[TLELIST] Archives

 

Current TLEs

June 16th 2007 PDT

HST 1 20580U 90037B 07166.47801992 .00000374 00000-0 16159-4 0 8960 2 20580 028.4682 201.2713 0003618 085.2242 274.8761 15.00251417739701 ISS (ZARYA) 1 25544U 98067A 07167.43133300 .00017613 00000-0 10397-3 0 4028 2 25544 051.6338 107.8113 0008019 329.0514 131.5774 15.78224887490655 CXO 1 25867U 99040B 07167.66666667 .00000234 00000-0 00000+0 0 809 2 25867 061.8840 089.3046 6226347 284.1211 359.5043 00.37797626 2251 ____________________________________________________________________ These 2-Line ...Continue Reading

Current TLEs

June 15th 2007 PDT

HST 1 20580U 90037B 07164.48227692 +.00000356 +00000-0 +14808-4 0 09047 2 20580 028.4684 214.2838 0003490 064.1002 295.9951 15.00250541739402 ISS (ZARYA) 1 25544U 98067A 07166.41773267 -.00000028 00000-0 37554-5 0 3968 2 25544 051.6338 113.0520 0007998 320.6741 137.1642 15.78139971490497 CXO 1 25867U 99040B 07165.04166667 .00000275 00000-0 00000+0 0 797 2 25867 061.8678 089.3610 6225096 284.2006 002.0735 00.37801202 2243 ____________________________________________________________________ These 2-Line ...Continue Reading

Current TLEs

June 14th 2007 PDT

HST 1 20580U 90037B 07165.21404950 .00000355 00000-0 14747-4 0 8953 2 20580 028.4684 209.5135 0003506 071.6869 288.4094 15.00250805739511 ISS (ZARYA) 1 25544U 98067A 07165.46887852 .00001452 00000-0 12215-4 0 3910 2 25544 051.6343 117.9576 0007736 320.4379 142.9790 15.78130980490345 CXO 1 25867U 99040B 07165.04166667 .00000275 00000-0 00000+0 0 797 2 25867 061.8678 089.3610 6225096 284.2006 002.0735 00.37801202 2243 ____________________________________________________________________ These 2-Line ...Continue Reading

Current TLEs

June 13th 2007 PDT

HST 1 20580U 90037B 07162.61958164 +.00000398 +00000-0 +18038-4 0 09062 2 20580 028.4684 226.4284 0003491 043.8548 316.2324 15.00250079739128 ISS (ZARYA) 1 25544U 98067A 07164.45489703 -.00041829 00000-0 -23659-3 0 3840 2 25544 051.6329 123.1971 0008197 317.8887 140.9249 15.78106502490185 CXO 1 25867U 99040B 07165.04166667 .00000275 00000-0 00000+0 0 797 2 25867 061.8678 089.3610 6225096 284.2006 002.0735 00.37801202 2243 ____________________________________________________________________ These 2-Line ...Continue Reading

Current TLEs

June 12th 2007 PDT

HST 1 20580U 90037B 07161.55518352 +.00000377 +00000-0 +16452-4 0 09026 2 20580 028.4686 233.3690 0003371 030.8693 329.2097 15.00249486738964 ISS (ZARYA) 1 25544U 98067A 07163.44085882 .00021865 00000-0 12720-3 0 3784 2 25544 051.6325 128.4288 0007933 306.6691 146.9420 15.78378753490025 CXO 1 25867U 99040B 07162.37500000 .00000397 00000-0 00000+0 0 787 2 25867 061.8445 089.4499 6224774 284.2207 359.0648 00.37808770 2230 ____________________________________________________________________ These 2-Line ...Continue Reading

Current TLEs

June 11th 2007 PDT

HST 1 20580U 90037B 07162.22043220 .00000379 00000-0 16593-4 0 8935 2 20580 028.4686 229.0324 0003346 037.9280 322.1550 15.00249792739060 ISS (ZARYA) 1 25544U 98067A 07162.49216632 .00020682 00000-0 12082-3 0 3728 2 25544 051.6327 133.3358 0007721 307.0683 152.3002 15.78328853489875 CXO 1 25867U 99040B 07162.37500000 .00000397 00000-0 00000+0 0 787 2 25867 061.8445 089.4499 6224774 284.2207 359.0648 00.37808770 2230 ____________________________________________________________________ These 2-Line ...Continue Reading

Current TLEs

June 10th 2007 PDT

HST 1 20580U 90037B 07160.55731015 .00000379 00000-0 16557-4 0 8924 2 20580 028.4686 239.8760 0003361 019.3867 340.6852 15.00249071738817 ISS (ZARYA) 1 25544U 98067A 07161.47821878 .00013560 00000-0 80834-4 0 3659 2 25544 051.6323 138.5770 0007841 305.1694 149.1089 15.78266736489713 CXO 1 25867U 99040B 07162.37500000 .00000397 00000-0 00000+0 0 787 2 25867 061.8445 089.4499 6224774 284.2207 359.0648 00.37808770 2230 ____________________________________________________________________ These 2-Line ...Continue Reading

Current TLEs

June 9th 2007 PDT

HST 1 20580U 90037B 07158.62808700 .00000397 00000-0 17957-4 0 8919 2 20580 028.4689 252.4549 0003364 357.7226 002.3346 15.00248379738525 ISS (ZARYA) 1 25544U 98067A 07160.47327588 .00005874 00000-0 37334-4 0 3596 2 25544 051.6325 143.7706 0007848 299.7689 200.8227 15.78218913489556 CXO 1 25867U 99040B 07159.75000000 .00000486 00000-0 00000+0 0 778 2 25867 061.8237 089.5254 6221249 284.2152 001.8028 00.37808104 2226 ____________________________________________________________________ These 2-Line ...Continue Reading

Current TLEs

June 8th 2007 PDT

HST 1 20580U 90037B 07158.62808700 .00000397 00000-0 17957-4 0 8919 2 20580 028.4689 252.4549 0003364 357.7226 002.3346 15.00248379738525 ISS (ZARYA) 1 25544U 98067A 07159.45970028 .00005051 00000-0 32678-4 0 3521 2 25544 051.6318 149.0079 0007635 294.1579 203.8351 15.78202905489398 CXO 1 25867U 99040B 07159.75000000 .00000486 00000-0 00000+0 0 778 2 25867 061.8237 089.5254 6221249 284.2152 001.8028 00.37808104 2226 ____________________________________________________________________ These 2-Line ...Continue Reading

Current TLEs

June 7th 2007 PDT

HST 1 20580U 90037B 07156.69886342 +.00000381 +00000-0 +16742-4 0 08983 2 20580 028.4689 265.0338 0003397 336.3194 023.7241 15.00247385738239 ISS (ZARYA) 1 25544U 98067A 07158.33219907 .00006391 00000-0 40312-4 0 3464 2 25544 051.6310 154.8361 0007772 290.9348 276.8389 15.78197343489219 CXO 1 25867U 99040B 07157.08333333 .00000490 00000-0 00000+0 0 764 2 25867 061.8071 089.5815 6216385 284.2268 358.8327 00.37805720 2215 ____________________________________________________________________ These 2-Line ...Continue Reading
  • This mailing list is a public mailing list - anyone may join or leave, at any time.
  • This mailing list is announce-only.

International Space Station (ISS) / Hubble Space Telescope (HST) / Chandra X-Ray Observatory Orbital Data via EMAIL

Privacy Policy:

Private list